Cloud_Cover
0 0 0 0 0 0 0 0 0 0 5 0 0 4 5 5 5 6 10 12 96 41
0 0 0 0 0 0 0 0 0 0 0 0 0 2 5 5 5 10 12 56 5 5
0 0 0 0 0 0 0 0 0 0 0 0 0 5 27 15 38 62 9 5 2 0
0 0 0 0 0 0 0 0 0 1 1 4 5 27 33 5 3 0 0 0 1 5
0 0 0 0 0 3 5 1 4 5 5 5 4 5 5 5 5 5 11 83 94 100
0 0 0 0 0 5 5 5 5 5 5 5 5 5 3 5 21 98 100 100 93 96
3 2 0 0 0 3 5 5 5 5 5 5 4 5 5 5 5 2 1 0 0 4
0 0 0 0 2 4 5 5 5 5 5 5 5 5 5 5 5 5 5 33 20 38
0 0 2 5 5 5 5 5 5 5 6 52 5 5 8 21 41 41 6 5 98 13
5 2 3 5 5 5 5 35 74 40 44 5 13 5 30 84 44 76 100 100 100 100
5 5 5 5 8 40 27 5 5 5 10 52 100 100 98 95 100 99 100 100 100 100
4 5 44 18 9 5 20 66 22 5 18 100 100 100 100 98 100 100 100 100 100 100
30 5 6 8 22 62 8 32 94 100 100 100 99 100 100 100 96 100 100 100 100 100
5 5 5 16 60 44 20 34 94 86 60 97 94 98 100 100 100 100 100 100 100 100